When you browse on this site, cookies collect data to enhance your experience and personalize the content and advertising you see.
Visit our Privacy Policy to learn more. By continuing to use the site, you agree to this use of cookies and data.
  • In United Kingdom
  • List of Countries
  • For 7 days
  • Water Temperature
  • Weather Map
  • Weather Widgets
  • user-avatar
    Login

    Hourly Weather Megri

    Today, 16 September, Monday

    Time Temperature Precipitation Wind Pressure Humidity
    00:00 +14°C° 0.3 mm 3 mps 625 mmHg 69%
    01:00 +14°C° 0 mm 3 mps 625 mmHg 68%
    02:00 +14°C° 0 mm 3 mps 625 mmHg 67%
    03:00 +14°C° 0 mm 3 mps 625 mmHg 64%
    04:00 +14°C° 0 mm 3 mps 625 mmHg 68%
    05:00 +13°C° 0 mm 3 mps 625 mmHg 71%
    06:00 +12°C° 0 mm 3 mps 625 mmHg 74%
    07:00 +14°C° 0 mm 3 mps 625 mmHg 67%
    08:00 +17°C° 0 mm 4 mps 625 mmHg 61%
    09:00 +19°C° 0 mm 4 mps 626 mmHg 55%
    10:00 +20°C° 0 mm 4 mps 626 mmHg 48%
    11:00 +22°C° 0 mm 4 mps 626 mmHg 42%
    12:00 +25°C° 0 mm 4 mps 626 mmHg 35%
    13:00 +26°C° 0 mm 4 mps 626 mmHg 31%
    14:00 +27°C° 0 mm 5 mps 626 mmHg 27%
    15:00 +28°C° 0 mm 5 mps 626 mmHg 23%
    16:00 +26°C° 0 mm 5 mps 625 mmHg 26%
    17:00 +25°C° 0 mm 4 mps 625 mmHg 29%
    18:00 +22°C° 0 mm 4 mps 624 mmHg 32%
    19:00 +21°C° 0 mm 4 mps 624 mmHg 35%
    20:00 +20°C° 0 mm 3 mps 624 mmHg 39%
    21:00 +19°C° 0 mm 3 mps 624 mmHg 42%
    22:00 +18°C° 0 mm 2 mps 624 mmHg 44%
    23:00 +18°C° 0 mm 2 mps 624 mmHg 46%

    Tomorrow, 17 September, Tuesday

    Time Temperature Precipitation Wind Pressure Humidity
    00:00 +17°C° 0 mm 2 mps 623 mmHg 48%
    01:00 +17°C° 0 mm 2 mps 623 mmHg 48%
    02:00 +16°C° 0 mm 2 mps 623 mmHg 48%
    03:00 +16°C° 0 mm 1 mps 623 mmHg 49%
    04:00 +15°C° 0 mm 2 mps 623 mmHg 49%
    05:00 +15°C° 0 mm 2 mps 623 mmHg 50%
    06:00 +15°C° 0 mm 2 mps 623 mmHg 50%
    07:00 +17°C° 0 mm 2 mps 624 mmHg 44%
    08:00 +20°C° 0 mm 2 mps 625 mmHg 37%
    09:00 +22°C° 0 mm 3 mps 625 mmHg 30%
    10:00 +23°C° 0 mm 4 mps 626 mmHg 28%
    11:00 +26°C° 0 mm 5 mps 626 mmHg 26%
    12:00 +27°C° 0 mm 6 mps 626 mmHg 23%
    13:00 +28°C° 0 mm 6 mps 625 mmHg 22%
    14:00 +28°C° 0 mm 6 mps 625 mmHg 20%
    15:00 +29°C° 0 mm 6 mps 625 mmHg 18%
    16:00 +28°C° 0 mm 5 mps 624 mmHg 20%
    17:00 +26°C° 0 mm 5 mps 624 mmHg 21%
    18:00 +25°C° 0 mm 4 mps 623 mmHg 22%
    19:00 +23°C° 0 mm 4 mps 623 mmHg 27%
    20:00 +21°C° 0 mm 3 mps 623 mmHg 32%
    21:00 +20°C° 0 mm 2 mps 623 mmHg 36%
    22:00 +19°C° 0 mm 2 mps 623 mmHg 39%
    23:00 +19°C° 0 mm 1 mps 623 mmHg 42%

    Day after tomorrow, 18 September, Wednesday

    Time Temperature Precipitation Wind Pressure Humidity
    00:00 +16°C° 0 mm 0 mps 623 mmHg 45%
    01:00 +18°C° 0 mm 1 mps 623 mmHg 49%
    02:00 +16°C° 0 mm 1 mps 623 mmHg 52%
    03:00 +15°C° 0 mm 1 mps 623 mmHg 55%
    04:00 +15°C° 0 mm 1 mps 623 mmHg 57%
    05:00 +15°C° 0 mm 1 mps 623 mmHg 59%
    06:00 +14°C° 0 mm 1 mps 623 mmHg 61%
    07:00 +18°C° 0 mm 1 mps 624 mmHg 52%
    08:00 +20°C° 0 mm 1 mps 625 mmHg 44%
    09:00 +22°C° 0 mm 1 mps 627 mmHg 35%
    10:00 +23°C° 0 mm 1 mps 627 mmHg 31%
    11:00 +24°C° 0 mm 1 mps 627 mmHg 28%
    12:00 +25°C° 0 mm 1 mps 627 mmHg 24%
    13:00 +26°C° 0 mm 2 mps 627 mmHg 23%
    14:00 +26°C° 0 mm 2 mps 627 mmHg 23%
    15:00 +27°C° 0 mm 2 mps 627 mmHg 22%
    16:00 +25°C° 0 mm 2 mps 626 mmHg 28%
    17:00 +24°C° 0 mm 2 mps 626 mmHg 34%
    18:00 +21°C° 0 mm 2 mps 625 mmHg 40%
    19:00 +20°C° 0 mm 2 mps 625 mmHg 45%
    20:00 +19°C° 0 mm 2 mps 625 mmHg 50%
    21:00 +18°C° 0 mm 2 mps 625 mmHg 55%
    22:00 +19°C° 0 mm 1 mps 625 mmHg 55%
    23:00 +18°C° 0 mm 1 mps 624 mmHg 56%

    19 September, Thursday

    Time Temperature Precipitation Wind Pressure Humidity
    00:00 +18°C° 0 mm 1 mps 624 mmHg 56%
    01:00 +16°C° 0 mm 1 mps 624 mmHg 55%
    02:00 +15°C° 0 mm 0 mps 624 mmHg 54%
    03:00 +14°C° 0 mm 0 mps 623 mmHg 52%
    04:00 +14°C° 0 mm 0 mps 623 mmHg 52%
    05:00 +14°C° 0 mm 0 mps 623 mmHg 52%
    06:00 +13°C° 0 mm 0 mps 623 mmHg 52%
    07:00 +16°C° 0 mm 0 mps 624 mmHg 44%
    08:00 +19°C° 0 mm 0 mps 625 mmHg 36%
    09:00 +24°C° 0 mm 1 mps 626 mmHg 29%
    10:00 +25°C° 0 mm 1 mps 627 mmHg 26%
    11:00 +26°C° 0 mm 1 mps 627 mmHg 23%
    12:00 +27°C° 0 mm 1 mps 627 mmHg 20%
    13:00 +27°C° 0 mm 2 mps 627 mmHg 20%
    14:00 +28°C° 0 mm 2 mps 627 mmHg 20%
    15:00 +28°C° 0 mm 2 mps 626 mmHg 19%
    16:00 +26°C° 0 mm 2 mps 626 mmHg 26%
    17:00 +24°C° 0 mm 2 mps 625 mmHg 32%
    18:00 +21°C° 0 mm 3 mps 625 mmHg 39%
    19:00 +20°C° 0 mm 3 mps 625 mmHg 43%
    20:00 +19°C° 0 mm 3 mps 624 mmHg 47%
    21:00 +18°C° 0 mm 3 mps 624 mmHg 51%
    22:00 +18°C° 0 mm 3 mps 624 mmHg 52%
    23:00 +17°C° 0 mm 3 mps 624 mmHg 54%

    20 September, Friday

    Time Temperature Precipitation Wind Pressure Humidity
    00:00 +17°C° 0 mm 3 mps 624 mmHg 55%
    01:00 +16°C° 0 mm 2 mps 624 mmHg 57%
    02:00 +16°C° 0 mm 2 mps 623 mmHg 58%
    03:00 +16°C° 0 mm 2 mps 623 mmHg 60%
    04:00 +15°C° 0 mm 2 mps 623 mmHg 62%
    05:00 +15°C° 0 mm 2 mps 622 mmHg 64%
    06:00 +14°C° 0 mm 1 mps 622 mmHg 65%
    07:00 +16°C° 0 mm 1 mps 623 mmHg 57%
    08:00 +20°C° 0 mm 1 mps 624 mmHg 48%
    09:00 +22°C° 0 mm 1 mps 625 mmHg 40%
    10:00 +23°C° 0 mm 2 mps 625 mmHg 34%
    11:00 +25°C° 0 mm 2 mps 625 mmHg 29%
    12:00 +26°C° 0 mm 3 mps 625 mmHg 23%
    13:00 +27°C° 0 mm 3 mps 625 mmHg 21%
    14:00 +28°C° 0 mm 3 mps 624 mmHg 20%
    15:00 +28°C° 0 mm 3 mps 624 mmHg 18%
    16:00 +27°C° 0 mm 3 mps 623 mmHg 22%
    17:00 +25°C° 0 mm 2 mps 623 mmHg 25%
    18:00 +24°C° 0 mm 2 mps 622 mmHg 28%
    19:00 +23°C° 0 mm 2 mps 622 mmHg 28%
    20:00 +21°C° 0 mm 2 mps 622 mmHg 27%
    21:00 +21°C° 0 mm 2 mps 622 mmHg 27%
    22:00 +20°C° 0 mm 2 mps 622 mmHg 28%
    23:00 +20°C° 0 mm 2 mps 622 mmHg 29%

    21 September, Saturday

    Time Temperature Precipitation Wind Pressure Humidity
    00:00 +20°C° 0 mm 3 mps 621 mmHg 29%
    01:00 +20°C° 0 mm 3 mps 621 mmHg 31%
    02:00 +20°C° 0 mm 3 mps 621 mmHg 32%
    03:00 +19°C° 0 mm 3 mps 620 mmHg 33%
    04:00 +19°C° 0 mm 3 mps 620 mmHg 34%
    05:00 +18°C° 0 mm 3 mps 620 mmHg 34%
    06:00 +18°C° 0 mm 3 mps 620 mmHg 34%
    07:00 +20°C° 0 mm 4 mps 621 mmHg 31%
    08:00 +22°C° 0 mm 5 mps 621 mmHg 27%
    09:00 +26°C° 0 mm 6 mps 622 mmHg 24%
    10:00 +27°C° 0 mm 7 mps 622 mmHg 23%
    11:00 +28°C° 0 mm 8 mps 622 mmHg 21%
    12:00 +29°C° 0 mm 9 mps 622 mmHg 20%
    13:00 +29°C° 0 mm 9 mps 622 mmHg 20%
    14:00 +29°C° 0 mm 10 mps 622 mmHg 20%
    15:00 +29°C° 0 mm 10 mps 621 mmHg 20%
    16:00 +27°C° 0 mm 9 mps 621 mmHg 26%
    17:00 +24°C° 0 mm 7 mps 621 mmHg 32%
    18:00 +22°C° 0 mm 5 mps 620 mmHg 38%
    19:00 +19°C° 0 mm 5 mps 620 mmHg 50%
    20:00 +17°C° 0 mm 4 mps 620 mmHg 62%
    21:00 +14°C° 0 mm 4 mps 620 mmHg 74%
    22:00 +13°C° 0 mm 4 mps 620 mmHg 75%
    23:00 +12°C° 0 mm 4 mps 620 mmHg 76%
    Show more